LA3SP-1 Weather Reports


time (UTC)temp
C
wind
direction
speed
KPH
gust
KPH
rain 1hr
cm
rain 24hr
cm
rain mn
cm
humidity
%
barometer
mb
20260506041329 -6 315 0.0 0.0 0.00 0.00 0.00 72 1007.0
20260506035326 -6 315 3.2 0.0 0.00 0.00 0.00 72 1006.8
20260506033324 -6 315 3.2 0.0 0.00 0.00 0.00 72 1006.8
20260506032323 -6 225 0.0 0.0 0.00 0.00 0.00 73 1006.6
20260506030320 -6 225 0.0 0.0 0.00 0.00 0.00 72 1006.5
20260506024317 -6 225 0.0 0.0 0.00 0.00 0.00 73 1006.7
20260506023316 -6 225 0.0 0.0 0.00 0.00 0.00 73 1006.7
20260506022314 -6 225 0.0 0.0 0.00 0.00 0.00 73 1006.8
20260506021314 -6 225 0.0 0.0 0.00 0.00 0.00 72 1006.7
20260506012308 -5 225 0.0 0.0 0.00 0.00 0.00 72 1006.5
20260506011305 -5 225 0.0 0.0 0.00 0.00 0.00 71 1006.3
20260506010303 -5 225 0.0 0.0 0.00 0.00 0.00 71 1006.4
20260506003300 -5 225 0.0 0.0 0.00 0.00 0.00 71 1006.0
20260506000255 -5 225 0.0 0.0 0.00 0.00 0.00 70 1006.0
20260505235410 -5 225 0.0 0.0 0.00 0.00 0.00 69 1006.1
20260505235253 -5 225 0.0 0.0 0.00 0.00 0.00 70 1006.2
20260505234252 -5 225 0.0 0.0 0.00 0.00 0.00 69 1006.1
20260505232250 -4 225 0.0 0.0 0.00 0.00 0.00 70 1006.0
20260505231248 -4 225 0.0 0.0 0.00 0.00 0.00 70 1006.0
20260505222241 -3 225 0.0 0.0 0.00 0.00 0.00 70 1006.0
20260505215237 -3 225 0.0 0.0 0.00 0.00 0.00 71 1006.1
20260505214235 -3 225 0.0 0.0 0.00 0.00 0.00 71 1006.1
20260505212233 -3 225 0.0 0.0 0.00 0.00 0.00 70 1006.1
20260505211232 -3 225 0.0 0.0 0.00 0.00 0.00 70 1006.1
20260505210230 -4 225 0.0 0.0 0.00 0.00 0.00 70 1006.0
20260505205229 -3 225 0.0 0.0 0.00 0.00 0.00 69 1006.2
20260505204227 -3 225 0.0 0.0 0.00 0.00 0.00 68 1006.1
20260505203226 -3 225 0.0 0.0 0.00 0.00 0.00 67 1005.9
20260505201223 -3 225 1.6 0.0 0.00 0.00 0.00 66 1005.9
20260505200222 -3 225 0.0 0.0 0.00 0.00 0.00 65 1005.9
20260505195220 -2 225 0.0 0.0 0.00 0.00 0.00 64 1005.9
20260505194219 -2 225 0.0 0.0 0.00 0.00 0.00 63 1005.7
20260505193217 -2 225 0.0 0.0 0.00 0.00 0.00 63 1005.6
20260505190214 -2 225 4.8 0.0 0.00 0.00 0.00 61 1005.6
20260505185212 -2 225 1.6 0.0 0.00 0.00 0.00 61 1005.5
20260505184211 -2 157 4.8 0.0 0.00 0.00 0.00 60 1005.6
20260505183209 -2 157 4.8 0.0 0.00 0.00 0.00 60 1005.4
20260505182208 -1 292 1.6 0.0 0.00 0.00 0.00 59 1005.3
20260505180205 -1 247 0.0 0.0 0.00 0.00 0.00 58 1005.2
20260505175204 -1 270 8.0 0.0 0.00 0.00 0.00 59 1005.3
20260505174202 -1 292 8.0 0.0 0.00 0.00 0.00 58 1005.3
20260505173201 0 270 6.4 0.0 0.00 0.00 0.00 59 1005.2
20260505171159 0 315 11.3 0.0 0.00 0.00 0.00 58 1005.2
20260505170158 0 270 3.2 0.0 0.00 0.00 0.00 59 1005.2
20260505165156 0 292 11.3 0.0 0.00 0.00 0.00 59 1005.2
20260505164154 0 315 0.0 0.0 0.00 0.00 0.00 59 1005.1
20260505163153 0 247 0.0 0.0 0.00 0.00 0.00 57 1005.4
20260505162151 1 225 0.0 0.0 0.00 0.00 0.00 53 1005.4
20260505161150 2 247 0.0 0.0 0.00 0.00 0.00 50 1005.3
20260505153144 4 135 4.8 0.0 0.00 0.00 0.00 52 1005.1
20260505152143 3 157 9.7 0.0 0.00 0.00 0.00 53 1005.0
20260505151142 2 180 3.2 0.0 0.00 0.00 0.00 51 1004.9
20260505140132 3 135 6.4 0.0 0.00 0.00 0.00 50 1004.7
20260505130124 2 157 6.4 0.0 0.00 0.00 0.00 49 1004.9
20260505124121 3 247 4.8 0.0 0.00 0.00 0.00 46 1005.0
20260505122118 3 225 8.0 0.0 0.00 0.00 0.00 45 1005.1
20260505121117 3 270 0.0 0.0 0.00 0.00 0.00 45 1005.0
20260505120115 5 292 9.7 0.0 0.00 0.00 0.00 44 1004.9
20260505115114 5 180 9.7 0.0 0.00 0.00 0.00 47 1005.0
20260505114112 5 157 9.7 0.0 0.00 0.00 0.00 46 1004.9
20260505113111 5 157 4.8 0.0 0.00 0.00 0.00 48 1004.9
20260505111109 4 180 6.4 0.0 0.00 0.00 0.00 51 1004.8
20260505110107 3 180 8.0 0.0 0.00 0.00 0.00 50 1004.8
20260505101100 1 157 8.0 0.0 0.00 0.00 0.00 54 1004.7
20260505100059 1 247 0.0 0.0 0.00 0.00 0.00 51 1004.8
20260505095058 1 67 6.4 0.0 0.00 0.00 0.00 53 1004.7
20260505094056 2 247 6.4 0.0 0.00 0.00 0.00 51 1004.8
20260505093054 2 157 3.2 0.0 0.00 0.00 0.00 55 1004.7
20260505092053 1 157 14.5 0.0 0.00 0.00 0.00 57 1004.7
20260505090051 0 225 0.0 0.0 0.00 0.00 0.00 57 1004.5
20260505085049 0 135 3.2 0.0 0.00 0.00 0.00 57 1004.6
20260505084048 0 292 3.2 0.0 0.00 0.00 0.00 56 1004.5
20260505083515 1 157 8.0 0.0 0.00 0.00 0.00 59 1004.7
20260505082046 1 157 8.0 0.0 0.00 0.00 0.00 59 1004.7
20260505075043 -1 292 3.2 0.0 0.00 0.00 0.00 61 1004.5
20260505074039 -1 135 3.2 0.0 0.00 0.00 0.00 64 1004.3
20260505073447 -3 292 8.0 0.0 0.00 0.00 0.00 64 1004.4
20260505073038 -2 315 1.6 0.0 0.00 0.00 0.00 64 1004.5
20260505072036 -3 292 8.0 0.0 0.00 0.00 0.00 64 1004.4
20260505065033 -3 315 1.6 0.0 0.00 0.00 0.00 64 1003.8
20260505064031 -3 67 0.0 0.0 0.00 0.00 0.00 64 1003.7
20260505062028 -4 270 6.4 0.0 0.00 0.00 0.00 64 1003.8
20260505061027 -4 247 8.0 0.0 0.00 0.00 0.00 65 1003.7
20260505060025 -4 247 0.0 0.0 0.00 0.00 0.00 66 1003.9
20260505051018 -5 247 0.0 0.0 0.00 0.00 0.00 71 1003.5